リニア彗星

252P/LINEAR (2021)

English version
Home page
Updated on September 18, 2021

---------------------------------------------------------------------

・ プロフィール

・ 写真集

・ 軌道要素

Epoch 2021 July 5.0 TT = JDT 2459400.5
T 2021 July 10.93931 TT                                 MPCW
q   1.0005505            (2000.0)            P               Q
n   0.18502368     Peri.  343.30070     -0.99406335     -0.10325297
a   3.0501264      Node   190.94517     +0.10837848     -0.96749842
e   0.6719642      Incl.   10.40938     -0.00959992     -0.23083682
P   5.33
From 1382 observations 2011 June 9-2016 July 31, mean residual 0".8.
     Nongravitational parameters A1 = +0.73, A2 = -0.1285.

・ 星図

・ 光度変化

        m1 = 10.0 + 5 logΔ + 30.0 log r(t - 15)

        ※ 灰色の曲線は、m1 = 18.0 + 5 logΔ + 10.0 log r の光度曲線です。

---------------------------------------------------------------------

軌道要素はM.P.E.C. 2017-A77に掲載されたものです。
星図はステラナビゲータ Ver.10 (アストロアーツ) で作成したものです。
光度グラフはComet for Windowsで作成したものです。

---------------------------------------------------------------------

Copyright(C) Seiichi Yoshida (comet@aerith.net). All rights reserved.